TimeEDT,TemperatureF,Dew PointF,Humidity,Sea Level PressureIn,VisibilityMPH,Wind Direction,Wind SpeedMPH,Gust SpeedMPH,PrecipitationIn,Events,Conditions,WindDirDegrees,DateUTC
12:15 AM,35.6,28.4,75,30.25,10.0,WSW,3.5,-,N/A,,Clear,250,2013-04-30 04:15:00
12:35 AM,35.6,30.2,81,30.25,10.0,WSW,4.6,-,N/A,,Clear,250,2013-04-30 04:35:00
12:55 AM,35.6,32.0,87,30.25,10.0,Calm,Calm,-,N/A,,Clear,0,2013-04-30 04:55:00
1:15 AM,35.6,28.4,75,30.25,10.0,Calm,Calm,-,N/A,,Clear,0,2013-04-30 05:15:00
1:35 AM,33.8,28.4,81,30.25,10.0,Calm,Calm,-,N/A,,Clear,0,2013-04-30 05:35:00
1:55 AM,33.8,30.2,87,30.25,10.0,Calm,Calm,-,N/A,,Clear,0,2013-04-30 05:55:00
2:15 AM,33.8,28.4,81,30.24,10.0,Calm,Calm,-,N/A,,Clear,0,2013-04-30 06:15:00
2:35 AM,33.8,28.4,81,30.25,10.0,Calm,Calm,-,N/A,,Clear,0,2013-04-30 06:35:00
2:55 AM,33.8,28.4,81,30.25,10.0,Calm,Calm,-,N/A,,Clear,0,2013-04-30 06:55:00
3:15 AM,32.0,26.6,80,30.25,10.0,Calm,Calm,-,N/A,,Clear,0,2013-04-30 07:15:00
3:35 AM,32.0,30.2,93,30.25,10.0,Calm,Calm,-,N/A,,Clear,0,2013-04-30 07:35:00
3:55 AM,30.2,28.4,93,30.25,10.0,WSW,3.5,-,N/A,,Clear,240,2013-04-30 07:55:00
4:15 AM,30.2,26.6,86,30.26,10.0,Calm,Calm,-,N/A,,Clear,0,2013-04-30 08:15:00
4:35 AM,32.0,26.6,80,30.26,10.0,Calm,Calm,-,N/A,,Clear,0,2013-04-30 08:35:00
4:55 AM,30.2,26.6,86,30.26,10.0,Calm,Calm,-,N/A,,Clear,0,2013-04-30 08:55:00
5:15 AM,30.2,24.8,80,30.27,10.0,Calm,Calm,-,N/A,,Clear,0,2013-04-30 09:15:00
5:35 AM,30.2,24.8,80,30.27,9.0,WSW,3.5,-,N/A,,Clear,240,2013-04-30 09:35:00
5:55 AM,30.2,26.6,86,30.28,10.0,Calm,Calm,-,N/A,,Clear,0,2013-04-30 09:55:00
6:15 AM,33.8,28.4,81,30.29,10.0,Calm,Calm,-,N/A,,Clear,0,2013-04-30 10:15:00
6:35 AM,35.6,30.2,81,30.30,10.0,Calm,Calm,-,N/A,,Clear,0,2013-04-30 10:35:00
6:55 AM,39.2,35.6,87,30.30,10.0,Calm,Calm,-,N/A,,Clear,0,2013-04-30 10:55:00
7:15 AM,42.8,35.6,76,30.31,10.0,Calm,Calm,-,N/A,,Clear,0,2013-04-30 11:15:00
7:35 AM,44.6,37.4,76,30.32,10.0,Calm,Calm,-,N/A,,Clear,0,2013-04-30 11:35:00
7:55 AM,46.4,37.4,71,30.32,10.0,Calm,Calm,-,N/A,,Clear,0,2013-04-30 11:55:00
8:15 AM,50.0,35.6,58,30.32,10.0,Calm,Calm,-,N/A,,Clear,0,2013-04-30 12:15:00
8:35 AM,53.6,33.8,47,30.32,10.0,Calm,Calm,-,N/A,,Clear,0,2013-04-30 12:35:00
8:55 AM,55.4,35.6,47,30.32,10.0,Calm,Calm,-,N/A,,Clear,0,2013-04-30 12:55:00
9:15 AM,59.0,30.2,34,30.32,10.0,Calm,Calm,-,N/A,,Clear,0,2013-04-30 13:15:00
9:35 AM,62.6,30.2,30,30.32,5.0,Calm,Calm,-,N/A,,Clear,0,2013-04-30 13:35:00
9:55 AM,64.4,30.2,28,30.32,10.0,SE,3.5,-,N/A,,Clear,140,2013-04-30 13:55:00
10:35 AM,64.4,28.4,26,30.32,10.0,SE,6.9,-,N/A,,Clear,140,2013-04-30 14:35:00
10:55 AM,66.2,30.2,26,30.32,10.0,Calm,Calm,-,N/A,,Clear,0,2013-04-30 14:55:00
11:15 AM,66.2,32.0,28,30.31,10.0,ESE,8.1,-,N/A,,Clear,110,2013-04-30 15:15:00
11:35 AM,66.2,33.8,30,30.31,10.0,SE,8.1,-,N/A,,Clear,130,2013-04-30 15:35:00
11:55 AM,64.4,30.2,28,30.31,10.0,ESE,10.4,17.3,N/A,,Clear,120,2013-04-30 15:55:00
12:15 PM,66.2,30.2,26,30.31,10.0,SSE,6.9,-,N/A,,Clear,150,2013-04-30 16:15:00
12:35 PM,66.2,28.4,24,30.31,10.0,SE,8.1,-,N/A,,Clear,140,2013-04-30 16:35:00
12:55 PM,66.2,28.4,24,30.31,10.0,SSE,9.2,18.4,N/A,,Clear,150,2013-04-30 16:55:00
1:15 PM,66.2,28.4,24,30.31,10.0,SE,9.2,18.4,N/A,,Clear,140,2013-04-30 17:15:00
1:35 PM,66.2,26.6,23,30.31,10.0,SSE,10.4,17.3,N/A,,Clear,150,2013-04-30 17:35:00
1:56 PM,66.2,26.6,23,30.31,10.0,SE,6.9,-,N/A,,Clear,130,2013-04-30 17:56:00
2:15 PM,66.2,26.6,23,30.31,10.0,SSE,9.2,17.3,N/A,,Clear,150,2013-04-30 18:15:00
2:35 PM,66.2,26.6,23,30.31,10.0,SSE,10.4,18.4,N/A,,Clear,160,2013-04-30 18:35:00
2:55 PM,66.2,26.6,23,30.31,10.0,SE,8.1,-,N/A,,Clear,140,2013-04-30 18:55:00
3:15 PM,66.2,26.6,23,30.31,10.0,SE,10.4,16.1,N/A,,Clear,130,2013-04-30 19:15:00
3:35 PM,66.2,26.6,23,30.31,10.0,SE,10.4,-,N/A,,Clear,130,2013-04-30 19:35:00
4:15 PM,66.2,24.8,21,30.30,10.0,South,9.2,-,N/A,,Clear,170,2013-04-30 20:15:00
4:35 PM,64.4,24.8,22,30.30,10.0,SE,9.2,-,N/A,,Clear,130,2013-04-30 20:35:00
4:55 PM,64.4,24.8,22,30.31,10.0,SSE,8.1,-,N/A,,Clear,150,2013-04-30 20:55:00
5:15 PM,64.4,24.8,22,30.31,10.0,SE,8.1,-,N/A,,Clear,140,2013-04-30 21:15:00
5:35 PM,62.6,24.8,24,30.31,10.0,SE,8.1,-,N/A,,Clear,140,2013-04-30 21:35:00
5:55 PM,62.6,23.0,22,30.32,10.0,SE,5.8,-,N/A,,Clear,140,2013-04-30 21:55:00
6:15 PM,62.6,23.0,22,30.32,10.0,SE,8.1,-,N/A,,Clear,140,2013-04-30 22:15:00
6:35 PM,60.8,21.2,22,30.32,10.0,SE,4.6,-,N/A,,Clear,140,2013-04-30 22:35:00
6:55 PM,60.8,19.4,20,30.33,10.0,SE,5.8,-,N/A,,Clear,140,2013-04-30 22:55:00
7:15 PM,59.0,19.4,22,30.33,10.0,SSE,5.8,-,N/A,,Clear,160,2013-04-30 23:15:00
7:35 PM,57.2,17.6,21,30.33,10.0,SSE,3.5,-,N/A,,Clear,160,2013-04-30 23:35:00
7:55 PM,55.4,19.4,25,30.34,10.0,SSE,4.6,-,N/A,,Clear,150,2013-04-30 23:55:00
8:15 PM,53.6,17.6,24,30.35,10.0,SSE,3.5,-,N/A,,Clear,160,2013-05-01 00:15:00
8:35 PM,48.2,26.6,43,30.35,10.0,Calm,Calm,-,N/A,,Clear,0,2013-05-01 00:35:00
8:55 PM,46.4,28.4,50,30.35,10.0,Calm,Calm,-,N/A,,Clear,0,2013-05-01 00:55:00
9:15 PM,44.6,24.8,46,30.36,10.0,Calm,Calm,-,N/A,,Clear,0,2013-05-01 01:15:00
9:35 PM,42.8,28.4,57,30.36,10.0,Calm,Calm,-,N/A,,Clear,0,2013-05-01 01:35:00
9:55 PM,41.0,32.0,70,30.37,10.0,Calm,Calm,-,N/A,,Clear,0,2013-05-01 01:55:00
10:15 PM,37.4,24.8,60,30.37,10.0,Calm,Calm,-,N/A,,Clear,0,2013-05-01 02:15:00
10:35 PM,-9999,-9999,N/A,30.36,10.0,WSW,3.5,-,N/A,,Clear,250,2013-05-01 02:35:00
10:55 PM,35.6,24.8,65,30.37,10.0,WSW,3.5,-,N/A,,Clear,250,2013-05-01 02:55:00
11:15 PM,35.6,26.6,70,30.37,10.0,WSW,3.5,-,N/A,,Clear,240,2013-05-01 03:15:00
11:55 PM,35.6,24.8,65,30.39,10.0,Calm,Calm,-,N/A,,Clear,0,2013-05-01 03:55:00